Search for airport 
image banner adimage banner ad
image banner ad

LEAL - Alicante-Elche

Located in Alicante, Spain

ICAO - LEAL, IATA - ALC

Data provided by Airmate  

General information

Coordinates: N38°16'56" W0°33'29"
Elevation is 141 feet MSL.
Magnetic variation is 0° East
View others Airports in Valencia

Operational data

Open for public use
Current time UTC:
Current local time:
Weather
METAR: LEAL 230800Z 31007KT 9999 FEW060 09/02 Q1017 NOSIG
TAF: TAF LEAL 230500Z 2306/2406 26014KT 9999 FEW030 TX18/2313Z TN07/2306Z TEMPO 2309/2315 30018G30KT BECMG 2317/2319 25007KT
View NOTAMs / SUP AIP / TFR affecting this airport [VIEW]
Communications frequencies: [VIEW]

Runways:

RWY identifierQFULength (ft)Width (ft)SurfaceLDA (ft)
10100°9843148ASPH9843
28280°9843148ASPH9843

Airport contact information

Address: Alicante Spain

Aga Airlines Ground Assistance

Aga Airlines Ground Assistance

Gerardo Melendez Sl

Gerardo Melendez Sl
[VIEW][VIEW]
+34646307619

Iberia Airport Services

Iberia Airport Services

Menzies Aviation Iberica

Menzies Aviation Iberica

Swissport Handling S.A.

Swissport Handling S.A.

Other aviation service providers

Flight schools

Sim Crew Training

Sim Crew Training

Aviation club (not for profit)

Aeroclub De Alicante

Aeroclub De Alicante

Satellite view of LEAL